Regional Weather Roundup
Issued by NWS

Home | Current Version | Previous Version | Graphics & Text | Print | Product List | Glossary On
Versions: 1 2 3 4 5 6 7 8 9 10 11 12 13 14 15 16 17 18 19 20 21 22 23 24 25 26 27 28 29 30 31 32 33 34 35 36 37 38 39 40 41 42 43 44 45 46 47 48 49 50
000
ASUS43 KMPX 261501
RWRMN
WEATHER ROUNDUP FOR MINNESOTA
NATIONAL WEATHER SERVICE TWIN CITIES/CHANHASSEN MN
1000 AM CDT TUE SEP 26 2017


NOTE: "FAIR" INDICATES FEW OR NO CLOUDS BELOW 12,000 FEET WITH NO
SIGNIFICANT WEATHER AND/OR OBSTRUCTIONS TO VISIBILITY. N/A MEANS
CURRENT SKY AND/OR WEATHER CONDITIONS ARE NOT AVAILABLE.

MNZ060>063-068>070-261600-
   Twin Cities Metro

CITY           SKY/WX    TMP DP  RH WIND       PRES   REMARKS
TWIN CITIES    CLOUDY    60  58  92 W8        29.95R
ST PAUL        CLOUDY    60  57  89 W8        29.95R
CRYSTAL        CLOUDY    59  54  83 W7        29.93S
BLAINE         DRIZZLE   59  59 100 W7        29.94R
LAKEVILLE      CLOUDY    57  57 100 W6        29.96R
EDEN PRAIRIE   CLOUDY    60  56  86 W9        29.95R
SOUTH ST PAUL  CLOUDY    60  58  92 W7        29.95R
LAKE ELMO      CLOUDY    59  57  94 W6        29.94S
$$
MNZ001>005-007-008-013>017-022>024-027-028-261600-
   Northwest Minnesota

CITY           SKY/WX    TMP DP  RH WIND       PRES   REMARKS
BEMIDJI        DRIZZLE   49  48  98 N5        30.01S
HALLOCK        LGT RAIN  50  48  93 N6        30.08S
ROSEAU         DRIZZLE   50  45  81 N7        30.06R
WARROAD        CLOUDY    52  48  87 NE8       30.05R
THIEF RVR FALL LGT RAIN  50  48  93 NW6       30.07R
CROOKSTON      RAIN      50  48  93 N5        30.08R
FOSSTON        RAIN      48  46  93 NW6       30.05S
DETROIT LAKES  DRIZZLE   50  50 100 N10       30.02F
MOORHEAD       RAIN      50  48  93 W10       30.08R
PARK RAPIDS    LGT RAIN  52  50  93 NW9       30.00R
MAHNOMEN       DRIZZLE   49  49  98 N7        30.03F
$$
MNZ006-009>011-018-025>026-261600-
   North Central Minnesota

CITY           SKY/WX    TMP DP  RH WIND       PRES   REMARKS
BAUDETTE       CLOUDY    50  49  96 NE8       30.03F
FLAG ISLAND    CLOUDY    52  45  76 NE8       30.04S
INTL FALLS     CLOUDY    51  46  83 NE9       30.00F
WASKISH        LGT RAIN  48  48 100 NE6       30.01R
BIG FORK       DRIZZLE   52  48  87 N6        29.97F
LONGVILLE      LGT RAIN  52  52 100 NW3       29.97S
GRAND RAPIDS   LGT RAIN  52  51  97 N6        29.97S FOG
CRANE LAKE     DRIZZLE   48  48 100 N3        30.01S
WALKER         LGT RAIN  49  49  97 N7        29.99S
$$
MNZ012-019>021-037-261600-
   Northeast Minnesota

CITY           SKY/WX    TMP DP  RH WIND       PRES   REMARKS
DULUTH         CLOUDY    53  53 100 NE12      29.92F FOG
ELY            LGT RAIN  50  50 100 CALM      29.96S
HIBBING        LGT RAIN  51  50  96 NE5       29.94F FOG
EVELETH        DRIZZLE   53  51  95 NE7       29.96F
DULUTH HARBOR  RAIN      55  54  94 NE16      29.93S
GRAND MARAIS     N/A     55  54  96 CALM      29.95R
$$
MNZ029>031-032-039>041-046>048-054>057-064-261600-
   West Central Minnesota

CITY           SKY/WX    TMP DP  RH WIND       PRES   REMARKS
FERGUS FALLS   DRIZZLE   50  50 100 NW13      30.06R
WHEATON        CLOUDY    52  48  87 NW7       30.08R
ALEXANDRIA     CLOUDY    53  51  93 NW12      30.04R
ELBOW LAKE     CLOUDY    50  50 100 NW12      30.06R
WADENA         DRIZZLE   52  52 100 N8        29.99F
GLENWOOD       DRIZZLE   54  52  94 W14       30.03R
APPLETON       CLOUDY    54  50  87 NW9       30.05S FOG
BENSON         DRIZZLE   54  52  94 NW14      30.07R
ORTONVILLE     PTSUNNY   52  48  87 NW8       30.06S
MADISON        CLOUDY    54  54 100 NW8       30.06F
WILLMAR        CLOUDY    54  54 100 W15       30.04R FOG
$$
MNZ033>034-036-042>043-049>051-058-059-261600-
   Central Minnesota

CITY           SKY/WX    TMP DP  RH WIND       PRES   REMARKS
ST CLOUD       CLOUDY    55  55 100 W12       29.97R FOG
SAUK CENTRE    CLOUDY    53  51  93 NW10      30.00R
PAYNESVILLE    CLOUDY    55  55  98 NW10      30.00R
AITKIN         CLOUDY    54  52  94 N5        29.94R FOG
PINE RIVER     LGT RAIN  50  48  93 N5        30.01R
BRAINERD       LGT RAIN  53  52  96 NW10      29.96S FOG
STAPLES        DRIZZLE   52  52 100 NW9       29.99R
LITTLE FALLS   CLOUDY    52  50  93 W8        29.98R FOG
LITCHFIELD     CLOUDY    55  55 100 W8G17     30.00R FOG
BUFFALO        CLOUDY    56  53  92 W6        29.98R FOG
MAPLE LAKE     CLOUDY    56  55  98 W6        29.98R FOG
HUTCHINSON     CLOUDY    56  56  97 W6        30.01R
$$
MNZ037-044-045-052-053-261600-
   East Central Minnesota

CITY           SKY/WX    TMP DP  RH WIND       PRES   REMARKS
PRINCETON      CLOUDY    57  55  94 W9        29.95R FOG
MORA           CLOUDY    55  54  94 W5        29.94R FOG
RUSH CITY      CLOUDY    57  55  94 W3        29.93R
MOOSE LAKE     CLOUDY    54  54 100 N6        29.91R FOG
HINCKLEY       CLOUDY    55  55 100 N5        29.92R FOG
CLOQUET        DRIZZLE   54  52  94 NE9       29.92S
MCGREGOR       CLOUDY    54  52  94 N5        29.94R
$$
MNZ071>073-080-081-089-090-097-098-261600-
   Southwest Minnesota

CITY           SKY/WX    TMP DP  RH WIND       PRES   REMARKS
MONTEVIDEO     DRIZZLE   52  52 100 NW8G18    30.06R
GRANITE FALLS  CLOUDY    55  53  95 W13G18    30.07R FOG
CANBY          CLOUDY    55  52  92 W13       30.08R
MARSHALL       CLOUDY    53  51  93 NW15      30.07R
REDWOOD FALLS  CLOUDY    54  52  93 W15G21    30.04R FOG
OLIVIA         CLOUDY    54  52  94 W15       30.03R FOG
PIPESTONE      PTSUNNY   54  52  94 N8        30.07S
WORTHINGTON    CLOUDY    53  50  89 NW13      30.07R
JACKSON        CLOUDY    52  52 100 W10       30.06R FOG
TRACY          CLOUDY    53  53  98 NW12G18   30.07R
SLAYTON        CLOUDY    52  45  76 NW10      30.07R
$$
MNZ065>067-074>077-082>085-091>093-261600-
   South Central Minnesota

CITY           SKY/WX    TMP DP  RH WIND       PRES   REMARKS
MANKATO        CLOUDY    57  55  93 W12       30.01R
NEW ULM        CLOUDY    55  54  94 W14       30.02R
ST JAMES       CLOUDY    54  54 100 W13       30.04R
FAIRMONT       CLOUDY    55  53  93 NW15      30.04R
FARIBAULT      CLOUDY    57  57 100 W10       29.98R
OWATONNA       CLOUDY    57  55  94 W12       29.98R FOG
WASECA         CLOUDY    55  55 100 W9        30.01R
ALBERT LEA     CLOUDY    61  59  94 W8        30.00R
$$
MNZ078>079-086>088-094>096-261600-
   Southeast Minnesota

CITY           SKY/WX    TMP DP  RH WIND       PRES   REMARKS
ROCHESTER      CLOUDY    61  60  97 W9        29.97R
RED WING       CLOUDY    61  57  88 W3        29.93S
STANTON        CLOUDY    59  56  89 W9        29.96R
DODGE CENTER   CLOUDY    57  57 100 W6        29.98R
WINONA         CLOUDY    68  64  88 SW6       29.93S
AUSTIN         CLOUDY    57  57 100 W9        29.98R
PRESTON        CLOUDY    64  63  96 W12       29.96S
$$
ABBREVIATIONS USED IN REMARKS
   TC - TEMPERATURES IN CELSIUS
  WCI - WIND CHILL INDEX
   HX - HEAT INDEX
  VSB - VISIBILITY
$$




USA.gov is the U.S. government's official web portal to all federal, state and local government web resources and services.